KI1U Weather Reports


Display with metric or nautical units.
time (UTC)temp
F
wind
direction
speed
MPH
gust
MPH
rain 1hr
in
rain 24hr
in
rain mn
in
humidity
%
barometer
mb
20260506230027 55 215 2.0 11.0 0.01 0.06 0.06 91 1007.8
20260506224530 56 140 2.0 6.0 0.02 0.06 0.06 91 1007.7
20260506223031 56 157 2.0 6.0 0.01 0.05 0.05 91 1007.7
20260506221520 56 199 1.0 7.0 0.02 0.05 0.05 90 1007.7
20260506220034 56 238 1.0 5.0 0.02 0.05 0.05 90 1007.6
20260506214528 56 112 1.0 6.0 0.01 0.04 0.04 90 1008.0
20260506213026 57 196 2.0 8.0 0.02 0.04 0.04 89 1008.1
20260506211527 57 130 3.0 10.0 0.01 0.03 0.03 88 1008.2
20260506210022 58 165 1.0 7.0 0.01 0.03 0.03 88 1008.3
20260506204526 58 91 3.0 10.0 0.01 0.03 0.03 87 1008.4
20260506203028 58 143 3.0 9.0 0.00 0.02 0.02 87 1008.5
20260506201526 58 347 2.0 8.0 0.02 0.02 0.02 87 1008.6
20260506200022 59 197 3.0 13.0 0.02 0.02 0.02 86 1008.8
20260506194531 59 109 3.0 10.0 0.02 0.02 0.02 86 1008.9
20260506193009 58 93 3.0 8.0 0.02 0.02 0.02 85 1009.0
20260506191512 59 96 1.0 7.0 0.00 0.00 0.00 82 1009.1
20260506190020 60 109 2.0 11.0 0.00 0.00 0.00 78 1009.3
20260506184526 61 96 3.0 10.0 0.00 0.00 0.00 75 1009.4
20260506183023 62 271 3.0 10.0 0.00 0.00 0.00 73 1009.7
20260506181510 62 203 2.0 16.0 0.00 0.00 0.00 72 1009.6
20260506180014 63 240 4.0 15.0 0.00 0.00 0.00 71 1009.8
20260506174518 64 131 3.0 15.0 0.00 0.00 0.00 69 1010.1
20260506173026 65 245 6.0 17.0 0.00 0.00 0.00 67 1010.2
20260506171525 66 108 4.0 13.0 0.00 0.00 0.00 66 1010.6
20260506170016 67 36 5.0 15.0 0.00 0.00 0.00 65 1010.3
20260506164518 67 106 5.0 16.0 0.00 0.00 0.00 64 1010.4
20260506163019 66 44 2.0 13.0 0.00 0.00 0.00 67 1010.7
20260506161524 66 141 6.0 15.0 0.00 0.00 0.00 66 1010.9
20260506160035 66 234 4.0 14.0 0.00 0.00 0.00 65 1010.9
20260506154517 68 148 3.0 15.0 0.00 0.00 0.00 63 1011.0
20260506153019 68 115 3.0 10.0 0.00 0.00 0.00 64 1011.1
20260506151522 67 108 4.0 9.0 0.00 0.00 0.00 65 1011.2
20260506150025 67 82 3.0 11.0 0.00 0.00 0.00 65 1011.2
20260506144526 66 127 3.0 12.0 0.00 0.00 0.00 67 1011.4
20260506143016 66 198 2.0 8.0 0.00 0.00 0.00 67 1011.1
20260506141520 65 123 3.0 9.0 0.00 0.00 0.00 68 1011.5
20260506140024 65 145 2.0 6.0 0.00 0.00 0.00 69 1011.2
20260506134526 64 212 1.0 9.0 0.00 0.00 0.00 71 1011.2
20260506133026 63 123 2.0 9.0 0.00 0.00 0.00 72 1011.6
20260506131537 62 132 2.0 10.0 0.00 0.00 0.00 73 1011.9
20260506130034 61 150 4.0 8.0 0.00 0.00 0.00 75 1011.8
20260506124524 61 248 3.0 9.0 0.00 0.00 0.00 77 1011.7
20260506123026 60 61 3.0 7.0 0.00 0.00 0.00 79 1011.7
20260506121526 59 154 1.0 6.0 0.00 0.00 0.00 81 1011.7
20260506120021 58 179 3.0 6.0 0.00 0.00 0.00 82 1011.9
20260506114523 57 189 1.0 8.0 0.00 0.00 0.00 83 1012.3
20260506113026 57 113 1.0 9.0 0.00 0.00 0.00 84 1012.3
20260506111525 57 126 1.0 5.0 0.00 0.00 0.00 86 1012.2
20260506110015 56 136 0.0 5.0 0.00 0.00 0.00 86 1012.2
20260506104519 56 240 0.0 6.0 0.00 0.00 0.00 86 1012.3
20260506103003 56 294 2.0 6.0 0.00 0.00 0.00 86 1012.1
20260506101509 56 114 0.0 7.0 0.00 0.00 0.00 86 1012.0
20260506100016 56 80 0.0 9.0 0.00 0.00 0.00 86 1011.8
20260506094526 56 136 2.0 7.0 0.00 0.00 0.00 86 1011.7
20260506093030 56 224 1.0 7.0 0.00 0.00 0.00 85 1011.7
20260506091510 56 24 0.0 6.0 0.00 0.00 0.00 84 1011.9
20260506090010 57 229 0.0 6.0 0.00 0.00 0.00 84 1012.0
20260506084518 57 107 1.0 8.0 0.00 0.00 0.00 83 1012.1
20260506083022 57 202 1.0 10.0 0.00 0.00 0.00 83 1012.2
20260506081530 57 148 1.0 5.0 0.00 0.00 0.00 82 1012.2
20260506073020 58 129 4.0 9.0 0.00 0.00 0.00 81 1012.3
20260506071524 58 161 1.0 9.0 0.00 0.00 0.00 80 1012.2
20260506061520 57 86 2.0 7.0 0.00 0.00 0.00 80 1012.1
20260506044526 58 309 2.0 8.0 0.00 0.00 0.00 74 1012.7
20260506043028 59 112 3.0 9.0 0.00 0.00 0.00 72 1012.7
20260506041527 60 86 1.0 7.0 0.00 0.00 0.00 71 1012.6
20260506040019 60 239 2.0 9.0 0.00 0.00 0.00 71 1012.5
20260506034522 59 72 2.0 9.0 0.00 0.00 0.00 71 1012.5
20260506033026 59 210 2.0 11.0 0.00 0.00 0.00 70 1012.4
20260506031511 60 226 3.0 11.0 0.00 0.00 0.00 69 1012.3
20260506030027 60 176 3.0 12.0 0.00 0.00 0.00 68 1012.3
20260506024536 60 157 3.0 16.0 0.00 0.00 0.00 68 1012.2
20260506023027 59 193 3.0 10.0 0.00 0.00 0.00 68 1012.2
20260506021528 60 206 2.0 9.0 0.00 0.00 0.00 67 1012.4
20260506020013 60 100 2.0 8.0 0.00 0.00 0.00 67 1012.3
20260506014519 60 85 2.0 9.0 0.00 0.00 0.00 67 1012.3
20260506013022 60 139 2.0 11.0 0.00 0.00 0.00 67 1012.2
20260506011525 59 130 2.0 7.0 0.00 0.00 0.00 70 1012.2
20260506010033 58 115 2.0 7.0 0.00 0.00 0.00 71 1012.0
20260506004514 58 209 2.0 8.0 0.00 0.00 0.00 71 1011.8
20260506003019 58 226 2.0 6.0 0.00 0.00 0.00 71 1011.5
20260506001532 58 97 1.0 8.0 0.00 0.00 0.00 70 1011.3
20260506000027 59 94 1.0 9.0 0.00 0.00 0.00 70 1010.9
20260505234530 59 221 2.0 7.0 0.00 0.00 0.00 69 1010.5
20260505233020 60 139 2.0 10.0 0.00 0.00 0.00 68 1010.2
20260505231520 60 295 1.0 10.0 0.00 0.00 0.00 67 1010.1